[keps] orb09029.amsat

Ray Hoad r.hoad at att.net
Thu Jan 29 18:38:25 PST 2009


SB KEPS @ AMSAT  $ORB09029.O
Orbital Elements  09029.OSCAR

HR AMSAT ORBITAL ELEMENTS FOR OSCAR SATELLITES
FROM WA5QGD FORT WORTH,TX January 29, 2009
Send Subscribe/unsubscribe to KEPS at 
http://www.amsat.org/mailman/listinfo/keps
BID: ORB09029.O
TO ALL RADIO AMATEURS BT

Satellite: AO-07
Catalog number: 07530
Epoch time:      09028.66698268
Element set:    0390
Inclination:      101.4421 deg
RA of node:       058.3935 deg
Eccentricity:    0.0011828
Arg of perigee:   181.4389 deg
Mean anomaly:     178.6645 deg
Mean motion:   12.53575148 rev/day
Decay rate:       -2.7e-07 rev/day^2
Epoch rev:           56523
Checksum:              324

Satellite: AO-10
Catalog number: 14129
Epoch time:      09027.43491243
Element set:     614
Inclination:      026.0122 deg
RA of node:       174.2966 deg
Eccentricity:    0.5967617
Arg of perigee:   193.2634 deg
Mean anomaly:     139.0146 deg
Mean motion:   02.05870410 rev/day
Decay rate:      -2.55e-06 rev/day^2
Epoch rev:           19272
Checksum:              289

Satellite: UO-11
Catalog number: 14781
Epoch time:      09028.77791147
Element set:    0874
Inclination:      098.1278 deg
RA of node:       071.8364 deg
Eccentricity:    0.0010079
Arg of perigee:   069.3974 deg
Mean anomaly:     290.8272 deg
Mean motion:   14.79691545 rev/day
Decay rate:       -4.0e-08 rev/day^2
Epoch rev:           33721
Checksum:              337

Satellite: RS-15
Catalog number: 23439
Epoch time:      09028.73401519
Element set:    0188
Inclination:      064.8129 deg
RA of node:       130.3227 deg
Eccentricity:    0.0145971
Arg of perigee:   078.6985 deg
Mean anomaly:     283.0296 deg
Mean motion:   11.27553419 rev/day
Decay rate:       -3.9e-07 rev/day^2
Epoch rev:           58039
Checksum:              328

Satellite: FO-29
Catalog number: 24278
Epoch time:      09028.82457376
Element set:     959
Inclination:      098.5761 deg
RA of node:       281.4366 deg
Eccentricity:    0.0350749
Arg of perigee:   351.5285 deg
Mean anomaly:     008.0028 deg
Mean motion:   13.52942156 rev/day
Decay rate:       -8.0e-08 rev/day^2
Epoch rev:           61490
Checksum:              338

Satellite: SO-33
Catalog number: 25509
Epoch time:      09028.68085471
Element set:    0380
Inclination:      031.4327 deg
RA of node:       121.3354 deg
Eccentricity:    0.0354856
Arg of perigee:   198.7914 deg
Mean anomaly:     159.9310 deg
Mean motion:   14.28240494 rev/day
Decay rate:       3.32e-06 rev/day^2
Epoch rev:           53587
Checksum:              317

Satellite: AO-40
Catalog number: 26609
Epoch time:      09027.90100829
Element set:     184
Inclination:      008.5899 deg
RA of node:       035.8159 deg
Eccentricity:    0.7945181
Arg of perigee:   169.8633 deg
Mean anomaly:     231.5825 deg
Mean motion:   01.25585610 rev/day
Decay rate:       -6.2e-07 rev/day^2
Epoch rev:            3786
Checksum:              331

Satellite: VO-52
Catalog number: 28650
Epoch time:      09028.85510808
Element set:    0142
Inclination:      097.7617 deg
RA of node:       094.9233 deg
Eccentricity:    0.0028193
Arg of perigee:   123.3697 deg
Mean anomaly:     237.0210 deg
Mean motion:   14.81546585 rev/day
Decay rate:      -1.25e-06 rev/day^2
Epoch rev:           20201
Checksum:              296

Satellite: PO-63
Catalog number: 29712
Epoch time:      09029.80321589
Element set:     193
Inclination:      097.8487 deg
RA of node:       089.4100 deg
Eccentricity:    0.0014464
Arg of perigee:   009.8951 deg
Mean anomaly:     350.2543 deg
Mean motion:   14.80425699 rev/day
Decay rate:       4.26e-06 rev/day^2
Epoch rev:           11099
Checksum:              327

/EX
SB KEPS @ AMSAT  $ORB09029.D
Orbital Elements  09029.MICROS

HR AMSAT ORBITAL ELEMENTS FOR THE MICROSATS
FROM WA5QGD FORT WORTH,TX January 29, 2009
Send Subscribe/unsubscribe to KEPS at 
http://www.amsat.org/mailman/listinfo/keps
BID: ORB09029.D
TO ALL RADIO AMATEURS BT

Satellite: AO-16
Catalog number: 20439
Epoch time:      09029.69894872
Element set:     522
Inclination:      098.2603 deg
RA of node:       004.5340 deg
Eccentricity:    0.0010262
Arg of perigee:   219.3828 deg
Mean anomaly:     140.6613 deg
Mean motion:   14.31814530 rev/day
Decay rate:       -2.0e-07 rev/day^2
Epoch rev:           99333
Checksum:              287

Satellite: LO-19
Catalog number: 20442
Epoch time:      09029.70880098
Element set:     446
Inclination:      098.2258 deg
RA of node:       012.3274 deg
Eccentricity:    0.0011338
Arg of perigee:   216.0150 deg
Mean anomaly:     144.0259 deg
Mean motion:   14.32051187 rev/day
Decay rate:      -1.13e-06 rev/day^2
Epoch rev:           99349
Checksum:              287

Satellite: AO-27
Catalog number: 22825
Epoch time:      09028.90315288
Element set:    0165
Inclination:      098.4193 deg
RA of node:       346.8473 deg
Eccentricity:    0.0007701
Arg of perigee:   319.1662 deg
Mean anomaly:     040.8951 deg
Mean motion:   14.29257366 rev/day
Decay rate:        3.0e-08 rev/day^2
Epoch rev:           80001
Checksum:              303

Satellite: IO-26
Catalog number: 22826
Epoch time:      09028.63783637
Element set:    0884
Inclination:      098.4101 deg
RA of node:       347.4001 deg
Eccentricity:    0.0008377
Arg of perigee:   316.8621 deg
Mean anomaly:     043.1903 deg
Mean motion:   14.29507841 rev/day
Decay rate:       -2.3e-07 rev/day^2
Epoch rev:           80007
Checksum:              297

Satellite: GO-32
Catalog number: 25397
Epoch time:      09028.79547805
Element set:     808
Inclination:      098.3402 deg
RA of node:       058.5131 deg
Eccentricity:    0.0000773
Arg of perigee:   345.8471 deg
Mean anomaly:     014.2666 deg
Mean motion:   14.23154070 rev/day
Decay rate:       -6.8e-07 rev/day^2
Epoch rev:           54830
Checksum:              307

Satellite: NO-44
Catalog number: 26931
Epoch time:      09029.61810331
Element set:      85
Inclination:      067.0507 deg
RA of node:       061.3322 deg
Eccentricity:    0.0005624
Arg of perigee:   260.7606 deg
Mean anomaly:     099.2865 deg
Mean motion:   14.29544691 rev/day
Decay rate:      -2.69e-06 rev/day^2
Epoch rev:           38277
Checksum:              310

Satellite: SO-50
Catalog number: 27607
Epoch time:      09028.65600967
Element set:     800
Inclination:      064.5583 deg
RA of node:       088.8724 deg
Eccentricity:    0.0080483
Arg of perigee:   235.4045 deg
Mean anomaly:     123.9485 deg
Mean motion:   14.71411078 rev/day
Decay rate:       -5.8e-07 rev/day^2
Epoch rev:           32814
Checksum:              316

Satellite: CO-55
Catalog number: 27844
Epoch time:      09029.52488861
Element set:     499
Inclination:      098.7149 deg
RA of node:       040.6356 deg
Eccentricity:    0.0009750
Arg of perigee:   179.4744 deg
Mean anomaly:     180.6437 deg
Mean motion:   14.20619949 rev/day
Decay rate:        4.5e-07 rev/day^2
Epoch rev:           28957
Checksum:              363

Satellite: CO-57
Catalog number: 27848
Epoch time:      09028.56747997
Element set:     445
Inclination:      098.7164 deg
RA of node:       038.7574 deg
Eccentricity:    0.0009383
Arg of perigee:   187.1427 deg
Mean anomaly:     172.9639 deg
Mean motion:   14.20424430 rev/day
Decay rate:        2.5e-07 rev/day^2
Epoch rev:           28940
Checksum:              351

Satellite: AO-51
Catalog number: 28375
Epoch time:      09029.61138548
Element set:     304
Inclination:      098.0566 deg
RA of node:       047.2627 deg
Eccentricity:    0.0083177
Arg of perigee:   185.3656 deg
Mean anomaly:     174.6651 deg
Mean motion:   14.40631578 rev/day
Decay rate:        1.0e-08 rev/day^2
Epoch rev:           24100
Checksum:              305

Satellite: CO-56
Catalog number: 28941
Epoch time:      09029.84042704
Element set:     771
Inclination:      098.1244 deg
RA of node:       180.1122 deg
Eccentricity:    0.0123260
Arg of perigee:   290.3178 deg
Mean anomaly:     068.4949 deg
Mean motion:   15.70186104 rev/day
Decay rate:     2.7494e-04 rev/day^2
Epoch rev:           16544
Checksum:              313

Satellite: CP3
Catalog number: 31128
Epoch time:      09028.81564733
Element set:     542
Inclination:      098.0095 deg
RA of node:       088.3550 deg
Eccentricity:    0.0103110
Arg of perigee:   357.6160 deg
Mean anomaly:     002.4525 deg
Mean motion:   14.52013201 rev/day
Decay rate:       -4.7e-07 rev/day^2
Epoch rev:            9467
Checksum:              264

Satellite: CP4
Catalog number: 31132
Epoch time:      09029.66336729
Element set:     522
Inclination:      098.0161 deg
RA of node:       092.4657 deg
Eccentricity:    0.0085337
Arg of perigee:   345.6394 deg
Mean anomaly:     014.2369 deg
Mean motion:   14.55179542 rev/day
Decay rate:       1.08e-06 rev/day^2
Epoch rev:            9488
Checksum:              318

Satellite: CO-65
Catalog number: 32785
Epoch time:      09029.32664762
Element set:     277
Inclination:      097.9660 deg
RA of node:       094.3237 deg
Eccentricity:    0.0015803
Arg of perigee:   119.7896 deg
Mean anomaly:     240.4891 deg
Mean motion:   14.81442631 rev/day
Decay rate:        1.6e-07 rev/day^2
Epoch rev:            4088
Checksum:              331

/EX
SB KEPS @ AMSAT  $ORB09029.W
Orbital Elements  09029.WEATHER

HR AMSAT ORBITAL ELEMENTS FOR WEATHER SATELLITES
FROM WA5QGD FORT WORTH,TX January 29, 2009
Send Subscribe/unsubscribe to KEPS at 
http://www.amsat.org/mailman/listinfo/keps
BID: ORB09029.W
TO ALL RADIO AMATEURS BT

Satellite: NOAA-10
Catalog number: 16969
Epoch time:      09028.66204388
Element set:    0479
Inclination:      098.7058 deg
RA of node:       055.9756 deg
Eccentricity:    0.0011537
Arg of perigee:   242.7042 deg
Mean anomaly:     117.2945 deg
Mean motion:   14.27378939 rev/day
Decay rate:        1.3e-07 rev/day^2
Epoch rev:           16360
Checksum:              333

